GW5008 Weather Reports


time (UTC)temp
C
wind
direction
speed
KPH
gust
KPH
rain 1hr
cm
rain 24hr
cm
rain mn
cm
humidity
%
barometer
mb
20260507061037 4 286 1.6 3.2 0.00 0.00 0.00 98 1010.5
20260507060534 5 72 3.2 4.8 0.00 0.00 0.00 99 1010.4
20260507060031 5 91 1.6 4.8 0.00 0.00 0.00 99 1010.4
20260507055525 5 179 1.6 9.7 0.00 0.00 0.00 99 1010.3
20260507055022 5 66 1.6 11.3 0.00 0.00 0.00 99 1010.0
20260507054518 5 320 0.0 6.4 0.00 0.00 0.00 99 1010.2
20260507054015 5 84 1.6 3.2 0.00 0.00 0.00 99 1010.1
20260507053513 5 87 0.0 3.2 0.00 0.00 0.00 99 1010.1
20260507053011 5 359 1.6 4.8 0.00 0.00 0.00 99 1010.1
20260507052509 5 106 1.6 4.8 0.00 0.00 0.00 99 1010.2
20260507052005 5 89 1.6 4.8 0.00 0.00 0.00 99 1010.0
20260507051503 5 82 0.0 4.8 0.00 0.00 0.00 99 1010.1
20260507050959 5 84 3.2 9.7 0.00 0.00 0.00 99 1010.2
20260507050456 5 93 3.2 4.8 0.00 0.00 0.00 99 1010.0
20260507045953 5 80 3.2 6.4 0.00 0.00 0.00 99 1010.2
20260507045449 5 146 1.6 3.2 0.00 0.00 0.00 99 1010.0
20260507044947 5 22 0.0 1.6 0.00 0.00 0.00 99 1009.9
20260507044443 5 94 3.2 6.4 0.00 0.00 0.00 99 1010.1
20260507043939 5 112 1.6 3.2 0.00 0.00 0.00 99 1010.3
20260507043436 5 96 1.6 3.2 0.00 0.00 0.00 99 1010.2
20260507042932 5 150 0.0 1.6 0.00 0.00 0.00 99 1010.2
20260507042429 5 92 1.6 3.2 0.00 0.00 0.00 99 1010.2
20260507041925 5 72 0.0 1.6 0.00 0.00 0.00 99 1010.1
20260507041422 4 31 0.0 0.0 0.00 0.00 0.00 99 1010.1
20260507040919 4 4 0.0 0.0 0.00 0.00 0.00 99 1010.5
20260507040415 4 257 0.0 0.0 0.00 0.00 0.00 99 1010.3
20260507035911 4 284 0.0 0.0 0.13 1.14 1.14 99 1010.1
20260507035407 4 24 0.0 0.0 0.13 1.14 1.14 99 1010.2
20260507034904 4 242 0.0 0.0 0.00 1.12 1.12 99 1010.3
20260507034401 4 249 0.0 1.6 0.00 1.12 1.12 99 1010.2
20260507033859 4 296 0.0 0.0 0.00 1.12 1.12 99 1010.2
20260507033357 4 295 0.0 0.0 0.00 1.12 1.12 99 1010.0
20260507032853 4 301 0.0 0.0 0.00 1.12 1.12 99 1009.9
20260507032350 4 338 0.0 0.0 0.00 1.12 1.12 99 1010.0
20260507031846 4 269 0.0 0.0 0.00 1.12 1.12 99 1010.1
20260507031343 3 76 0.0 3.2 0.00 1.12 1.12 99 1009.9
20260507030840 3 340 0.0 0.0 0.00 1.12 1.12 99 1009.9
20260507030337 4 159 0.0 1.6 0.00 1.12 1.12 99 1009.9
20260507025834 4 158 0.0 0.0 0.00 1.12 1.12 99 1009.9
20260507025331 4 158 0.0 0.0 0.00 1.12 1.12 99 1009.9
20260507024829 5 158 0.0 0.0 0.00 1.12 1.12 99 1010.0
20260507024326 5 158 0.0 0.0 0.00 1.12 1.12 99 1010.5
20260507023822 5 158 0.0 0.0 0.00 1.12 1.12 99 1010.2
20260507023319 5 158 0.0 0.0 0.00 1.12 1.12 99 1010.2
20260507022816 5 158 0.0 0.0 0.00 1.12 1.12 99 1010.4
20260507022312 5 43 0.0 0.0 0.00 1.12 1.12 99 1010.5
20260507021809 5 43 0.0 0.0 0.00 1.12 1.12 99 1010.3
20260507021304 5 37 0.0 0.0 0.00 1.12 1.12 99 1010.3
20260507020802 5 312 0.0 0.0 0.00 1.12 1.12 99 1010.4
20260507020258 5 330 0.0 0.0 0.00 1.12 1.12 99 1010.4
20260507015756 5 246 0.0 0.0 0.00 1.12 1.12 99 1010.8
20260507015253 5 67 0.0 1.6 0.00 1.12 1.12 99 1010.9
20260507014750 5 353 0.0 0.0 0.00 1.12 1.12 99 1010.3
20260507014246 6 353 0.0 0.0 0.00 1.12 1.12 99 1010.5
20260507013743 6 88 0.0 0.0 0.00 1.12 1.12 99 1010.8
20260507013241 6 74 0.0 0.0 0.00 1.12 1.12 99 1011.0
20260507012738 6 65 1.6 3.2 0.00 1.12 1.12 99 1011.0
20260507012233 6 64 1.6 1.6 0.00 1.12 1.12 99 1010.7
20260507011731 6 75 0.0 1.6 0.00 1.12 1.12 99 1010.5
20260507011228 6 83 0.0 0.0 0.00 1.12 1.12 99 1010.6
20260507010727 6 212 1.6 1.6 0.00 1.12 1.12 99 1010.6
20260507010223 6 238 0.0 0.0 0.00 1.12 1.12 99 1010.4
20260507005721 6 46 0.0 1.6 0.00 1.12 1.12 99 1010.4
20260507005217 6 83 0.0 0.0 0.00 1.12 1.12 99 1010.5
20260507004714 6 56 0.0 0.0 0.00 1.12 1.12 99 1010.5
20260507004212 6 67 0.0 0.0 0.00 1.12 1.12 99 1010.4
20260507003707 6 76 0.0 1.6 0.00 1.12 1.12 99 1010.1
20260507003203 6 80 0.0 3.2 0.00 1.12 1.12 99 1010.0
20260507002659 6 78 0.0 0.0 0.00 1.12 1.12 99 1010.0
20260507002155 6 216 1.6 1.6 0.00 1.12 1.12 99 1010.0
20260507001652 6 260 3.2 9.7 0.00 1.12 1.12 99 1010.1
20260507001150 6 90 1.6 3.2 0.00 1.12 1.12 99 1010.0
20260507000646 6 265 0.0 1.6 0.00 1.12 1.12 99 1009.8
20260507000141 6 71 3.2 4.8 0.00 1.12 1.12 99 1009.6
20260506235639 6 22 1.6 3.2 0.00 1.12 1.12 99 1009.3
20260506235139 6 112 3.2 4.8 0.00 1.12 1.12 99 1009.1
20260506234636 6 124 3.2 9.7 0.00 1.12 1.12 99 1009.2
20260506234133 6 104 3.2 4.8 0.00 1.12 1.12 99 1009.5
20260506233630 6 63 1.6 6.4 0.00 1.12 1.12 99 1009.5
20260506233127 6 59 0.0 4.8 0.00 1.12 1.12 99 1009.3
20260506232623 6 129 3.2 6.4 0.00 1.12 1.12 99 1009.3
20260506232119 6 59 1.6 3.2 0.00 1.12 1.12 99 1009.0
20260506231616 6 265 0.0 3.2 0.00 1.12 1.12 99 1009.0
20260506231114 6 55 0.0 0.0 0.00 1.12 1.12 99 1009.2
20260506230611 6 75 1.6 11.3 0.00 1.12 1.12 99 1009.5
20260506230108 6 170 3.2 4.8 0.00 1.12 1.12 99 1009.1
20260506225604 6 92 1.6 6.4 0.00 1.12 1.12 99 1009.1
20260506225101 6 104 1.6 11.3 0.00 1.12 1.12 99 1009.3
20260506224558 6 286 1.6 4.8 0.00 1.12 1.12 99 1009.2
20260506224054 6 107 1.6 6.4 0.00 1.12 1.12 99 1009.1
20260506223550 6 84 6.4 11.3 0.00 1.12 1.12 99 1009.0
20260506223047 6 166 4.8 4.8 0.00 1.12 1.12 99 1009.1
20260506222544 6 145 4.8 6.4 0.00 1.12 1.12 99 1008.9
20260506222040 6 63 1.6 9.7 0.00 1.12 1.12 99 1008.9
20260506221538 6 76 0.0 3.2 0.00 1.12 1.12 99 1008.7
20260506221036 6 89 0.0 3.2 0.00 1.12 1.12 99 1008.7
20260506220531 7 208 0.0 3.2 0.00 1.12 1.12 99 1008.7
20260506220027 6 165 1.6 6.4 0.00 1.12 1.12 99 1008.6
20260506215524 6 273 3.2 4.8 0.00 1.12 1.12 99 1008.5
20260506215020 6 42 1.6 3.2 0.00 1.12 1.12 99 1008.3
20260506214517 6 211 1.6 6.4 0.00 1.12 1.12 99 1008.2
20260506214014 7 351 0.0 3.2 0.00 1.12 1.12 99 1008.3
20260506213513 7 71 1.6 4.8 0.18 1.12 1.12 99 1008.2
20260506213009 7 130 0.0 4.8 0.18 1.12 1.12 99 1008.1
20260506212505 7 76 0.0 4.8 0.00 1.09 1.09 99 1007.9
20260506212000 7 194 3.2 3.2 0.13 1.09 1.09 99 1007.8
20260506211456 7 74 1.6 4.8 0.13 1.09 1.09 99 1007.9
20260506210954 7 77 3.2 6.4 0.00 1.07 1.07 99 1007.9
20260506210450 7 174 4.8 9.7 0.00 1.07 1.07 99 1007.8
20260506205947 7 70 4.8 6.4 0.00 1.07 1.07 99 1007.6
20260506205443 7 265 1.6 11.3 0.00 1.07 1.07 99 1007.3
20260506204940 7 77 3.2 12.9 0.00 1.07 1.07 99 1007.3
20260506204438 7 115 6.4 14.5 0.00 1.07 1.07 99 1007.1
20260506203935 7 82 3.2 6.4 0.00 1.07 1.07 99 1006.9
20260506203432 7 95 3.2 6.4 0.00 1.07 1.07 99 1007.0
20260506202929 8 90 0.0 1.6 0.18 1.07 1.07 99 1007.2
20260506202426 8 80 1.6 3.2 0.00 1.04 1.04 99 1006.8
20260506201922 8 73 3.2 4.8 0.00 1.04 1.04 99 1006.6
20260506201420 8 75 3.2 6.4 0.13 1.04 1.04 99 1006.6
20260506200916 8 55 6.4 9.7 0.18 1.02 1.02 99 1006.5
20260506200412 8 59 3.2 6.4 0.18 1.02 1.02 99 1006.7
20260506195909 8 214 3.2 6.4 0.13 0.99 0.99 99 1006.7
20260506195406 8 72 1.6 9.7 0.48 0.99 0.99 99 1006.6
20260506194903 8 92 3.2 9.7 0.30 0.94 0.94 99 1006.5
20260506194400 9 107 3.2 9.7 0.13 0.91 0.91 99 1006.6
20260506193857 10 93 4.8 9.7 0.18 0.89 0.89 99 1006.5
20260506193354 12 64 8.0 11.3 0.18 0.89 0.89 99 1006.1
20260506192850 12 126 3.2 4.8 0.00 0.86 0.86 99 1006.2
20260506192347 12 281 0.0 6.4 0.00 0.86 0.86 99 1006.1
20260506191844 12 126 6.4 9.7 0.00 0.86 0.86 99 1006.3
20260506191340 12 75 1.6 11.3 0.00 0.86 0.86 99 1006.2
20260506190837 12 105 4.8 12.9 0.00 0.86 0.86 99 1006.1
20260506190334 12 87 4.8 12.9 0.00 0.86 0.86 99 1006.2
20260506185831 12 56 3.2 11.3 0.00 0.86 0.86 99 1005.9
20260506185328 12 243 1.6 12.9 0.00 0.86 0.86 99 1006.1
20260506184825 12 107 6.4 9.7 0.00 0.86 0.86 99 1006.1
20260506184322 12 68 1.6 6.4 0.00 0.86 0.86 99 1006.1
20260506183819 12 86 3.2 6.4 0.00 0.86 0.86 99 1006.2
20260506183314 12 302 3.2 11.3 0.00 0.86 0.86 99 1006.1
20260506182812 12 98 4.8 6.4 0.00 0.86 0.86 99 1006.2
20260506182309 12 322 3.2 9.7 0.00 0.86 0.86 99 1006.3
20260506181807 12 315 3.2 9.7 0.00 0.86 0.86 99 1006.2
20260506181304 12 128 3.2 4.8 0.00 0.86 0.86 99 1006.2
20260506180801 12 175 3.2 9.7 0.00 0.86 0.86 99 1006.3
20260506180257 12 260 1.6 11.3 0.00 0.86 0.86 99 1006.1
20260506175753 12 26 9.7 12.9 0.00 0.86 0.86 99 1006.4
20260506175250 12 100 3.2 12.9 0.00 0.86 0.86 99 1006.2
20260506174748 12 101 8.0 12.9 0.00 0.86 0.86 99 1006.4
20260506174245 12 77 3.2 6.4 0.00 0.86 0.86 99 1006.1
20260506173743 12 92 4.8 9.7 0.00 0.86 0.86 99 1005.9
20260506173239 12 72 3.2 14.5 0.00 0.86 0.86 99 1006.2
20260506172736 12 82 1.6 9.7 0.00 0.86 0.86 99 1006.2
20260506172232 12 215 6.4 12.9 0.00 0.86 0.86 99 1006.3
20260506171730 12 58 8.0 14.5 0.00 0.86 0.86 99 1006.1
20260506171227 12 25 1.6 11.3 0.00 0.86 0.86 99 1006.2
20260506170725 12 109 3.2 16.1 0.00 0.86 0.86 99 1006.2
20260506170221 12 165 1.6 9.7 0.00 0.86 0.86 99 1005.9
20260506165720 12 156 6.4 11.3 0.00 0.86 0.86 99 1006.3
20260506165216 12 99 6.4 9.7 0.00 0.86 0.86 99 1005.9
20260506164714 12 322 3.2 9.7 0.00 0.86 0.86 99 1006.2
20260506164211 12 116 4.8 11.3 0.00 0.86 0.86 99 1006.1
20260506163707 12 19 4.8 4.8 0.00 0.86 0.86 99 1006.2
20260506163202 12 51 1.6 11.3 0.13 0.86 0.86 99 1006.4
20260506162658 12 287 4.8 6.4 0.13 0.86 0.86 99 1006.3
20260506162156 12 327 1.6 12.9 0.00 0.84 0.84 99 1006.4
20260506161653 12 267 4.8 11.3 0.18 0.84 0.84 99 1006.6
20260506161150 12 2 3.2 3.2 0.00 0.81 0.81 99 1006.3
20260506160648 12 333 8.0 16.1 0.00 0.81 0.81 99 1006.4
20260506160144 12 208 4.8 6.4 0.00 0.81 0.81 99 1006.5
20260506155643 12 37 3.2 12.9 0.00 0.81 0.81 99 1006.3
20260506155140 12 68 9.7 25.7 0.13 0.81 0.81 99 1006.3
20260506153241 12 355 4.8 6.4 0.00 0.79 0.79 99 1006.3
20260506152738 12 46 1.6 3.2 0.00 0.79 0.79 99 1006.1
20260506152236 12 18 11.3 14.5 0.18 0.79 0.79 99 1006.5
20260506151735 12 53 8.0 14.5 0.30 0.79 0.79 99 1006.3
20260506151231 12 2 6.4 11.3 0.13 0.76 0.76 99 1006.5
20260506150727 12 21 0.0 9.7 0.18 0.74 0.74 99 1006.3
20260506150225 12 334 3.2 6.4 0.00 0.71 0.71 99 1006.3
20260506145722 12 240 3.2 12.9 0.13 0.71 0.71 99 1006.2
20260506145218 12 102 4.8 9.7 0.13 0.71 0.71 99 1006.5
20260506144716 12 288 1.6 9.7 0.00 0.69 0.69 99 1006.3
20260506144212 12 349 3.2 14.5 0.18 0.69 0.69 99 1006.4
20260506143710 12 257 3.2 12.9 0.00 0.66 0.66 99 1006.3
20260506143208 12 96 3.2 4.8 0.13 0.66 0.66 99 1006.3
20260506142706 12 97 6.4 9.7 0.13 0.66 0.66 98 1006.1
20260506142203 12 22 4.8 12.9 0.00 0.64 0.64 98 1006.4
20260506141701 12 224 6.4 12.9 0.00 0.64 0.64 98 1006.3
20260506141159 12 301 3.2 11.3 0.00 0.64 0.64 98 1006.3
20260506140656 12 2 3.2 11.3 0.00 0.64 0.64 98 1006.3
20260506140153 12 17 1.6 12.9 0.00 0.64 0.64 98 1006.4
20260506135650 12 148 6.4 14.5 0.00 0.64 0.64 98 1006.3
20260506135146 12 29 3.2 11.3 0.00 0.64 0.64 98 1006.5
20260506134643 12 355 4.8 14.5 0.00 0.64 0.64 98 1006.4
20260506134139 12 161 8.0 12.9 0.18 0.64 0.64 98 1006.3
20260506133637 12 258 4.8 11.3 0.18 0.64 0.64 98 1005.9
20260506133133 12 292 3.2 9.7 0.00 0.61 0.61 98 1006.2
20260506132631 12 305 3.2 16.1 0.18 0.61 0.61 98 1006.3
20260506132127 12 6 6.4 11.3 0.30 0.61 0.61 98 1006.4
20260506131625 12 240 9.7 14.5 0.30 0.58 0.58 98 1006.6
20260506131121 12 168 0.0 11.3 0.18 0.56 0.56 97 1006.8
20260506130618 11 330 4.8 9.7 0.13 0.53 0.53 97 1006.9
20260506130116 11 48 4.8 4.8 0.30 0.53 0.53 97 1007.1
20260506125614 11 260 6.4 11.3 0.18 0.51 0.51 97 1007.1
20260506125111 11 274 1.6 9.7 0.13 0.48 0.48 97 1007.1
20260506124609 11 296 9.7 12.9 0.30 0.48 0.48 97 1007.1
20260506124106 11 26 3.2 4.8 0.30 0.46 0.46 97 1007.1
20260506123604 11 28 0.0 6.4 0.13 0.43 0.43 96 1007.3
20260506123102 11 328 0.0 11.3 0.18 0.41 0.41 96 1007.4
20260506122558 11 283 3.2 4.8 0.18 0.41 0.41 96 1007.2
20260506122057 11 33 3.2 3.2 0.00 0.38 0.38 97 1007.3
20260506121554 11 22 3.2 3.2 0.13 0.38 0.38 97 1007.2
20260506121050 11 311 3.2 4.8 0.13 0.38 0.38 97 1007.1
20260506120548 11 281 1.6 4.8 0.18 0.36 0.36 98 1007.0
20260506120045 11 331 1.6 6.4 0.18 0.36 0.36 98 1006.9
20260506115543 11 14 1.6 3.2 0.00 0.33 0.33 99 1006.8
20260506115041 11 335 3.2 3.2 0.13 0.33 0.33 98 1006.8
20260506114538 11 283 1.6 4.8 0.13 0.33 0.33 98 1006.9
20260506114037 11 272 1.6 4.8 0.18 0.30 0.30 98 1007.2
20260506113534 11 286 0.0 4.8 0.18 0.30 0.30 98 1007.1
20260506113031 11 335 0.0 3.2 0.18 0.28 0.28 97 1007.0
20260506112528 11 294 0.0 3.2 0.18 0.28 0.28 97 1007.2
20260506112025 11 217 0.0 1.6 0.13 0.25 0.25 97 1007.1
20260506111523 11 325 0.0 1.6 0.13 0.25 0.25 96 1007.1
20260506111020 11 349 1.6 4.8 0.18 0.23 0.23 96 1007.2
20260506110518 11 289 0.0 1.6 0.00 0.20 0.20 96 1007.2
20260506110015 11 328 3.2 4.8 0.13 0.20 0.20 96 1007.1
20260506105511 11 289 0.0 1.6 0.30 0.20 0.20 95 1007.0
20260506105008 11 293 1.6 3.2 0.18 0.18 0.18 94 1006.9
20260506104506 11 334 3.2 3.2 0.00 0.15 0.15 93 1006.9
20260506104004 11 296 1.6 3.2 0.13 0.15 0.15 92 1007.2
20260506103501 11 259 0.0 1.6 0.13 0.15 0.15 92 1007.3
20260506102957 11 308 0.0 1.6 0.00 0.13 0.13 91 1007.1
20260506102456 11 333 1.6 3.2 0.00 0.13 0.13 91 1007.1
20260506101953 11 218 0.0 4.8 0.18 0.13 0.13 90 1006.9
20260506101449 11 208 0.0 3.2 0.18 0.13 0.13 90 1007.1
20260506100946 11 299 0.0 1.6 0.13 0.10 0.10 89 1007.2
20260506100445 11 328 3.2 4.8 0.13 0.10 0.10 87 1007.2
20260506095942 11 273 1.6 1.6 0.00 0.08 0.08 86 1006.9
20260506095441 11 40 0.0 3.2 0.00 0.08 0.08 87 1007.1
20260506094936 11 297 0.0 0.0 0.00 0.08 0.08 89 1006.9
20260506094435 11 181 0.0 0.0 0.00 0.08 0.08 87 1006.8
20260506093932 11 273 0.0 0.0 0.00 0.08 0.08 86 1006.9
20260506093430 12 282 0.0 1.6 0.18 0.08 0.08 86 1007.0
20260506092928 12 270 0.0 1.6 0.00 0.05 0.05 85 1007.0
20260506092426 12 273 1.6 1.6 0.13 0.05 0.05 83 1006.9
20260506091922 12 326 0.0 0.0 0.13 0.05 0.05 84 1007.0
20260506091420 12 36 0.0 4.8 0.00 0.03 0.03 80 1007.1
20260506090917 12 94 1.6 4.8 0.00 0.03 0.03 77 1007.0
20260506090415 12 243 0.0 1.6 0.18 0.03 0.03 77 1006.9
20260506085911 13 183 1.6 3.2 0.18 0.03 0.03 76 1006.9
20260506085408 13 85 0.0 1.6 0.00 0.00 0.00 73 1006.8
20260506084904 13 34 1.6 3.2 0.00 0.00 0.00 70 1007.0
20260506084401 13 309 0.0 3.2 0.00 0.00 0.00 71 1007.2
20260506083857 13 177 0.0 1.6 0.00 0.00 0.00 71 1007.3
20260506083355 14 210 0.0 1.6 0.00 0.00 0.00 69 1007.1
20260506082852 14 291 0.0 0.0 0.00 0.00 0.00 68 1007.2
20260506082349 14 340 1.6 6.4 0.00 0.00 0.00 67 1007.3
20260506081844 14 311 1.6 3.2 0.00 0.00 0.00 67 1007.3
20260506081343 15 186 0.0 4.8 0.00 0.00 0.00 63 1007.6
20260506080840 15 37 3.2 9.7 0.00 0.00 0.00 61 1007.6
20260506080337 15 69 4.8 4.8 0.00 0.00 0.00 59 1007.6
20260506073321 16 35 1.6 6.4 0.00 0.00 0.00 53 1006.9
20260506072818 16 41 0.0 6.4 0.00 0.00 0.00 53 1007.1
20260506072315 16 218 1.6 4.8 0.00 0.00 0.00 52 1006.9
20260506071813 16 346 4.8 12.9 0.00 0.00 0.00 52 1007.0
20260506071311 16 49 3.2 6.4 0.00 0.00 0.00 52 1007.0
20260506070808 17 239 4.8 6.4 0.00 0.00 0.00 52 1007.1
20260506070305 16 145 1.6 6.4 0.00 0.00 0.00 52 1006.9
20260506062242 16 330 4.8 9.7 0.00 0.00 0.00 56 1007.4
20260506061737 16 298 3.2 4.8 0.00 0.00 0.00 56 1007.6
20260506061235 16 18 1.6 4.8 0.00 0.00 0.00 57 1007.8